Location: Bremen
(53.0793°N, 8.8017°E)
Time: 21:11:51
(UTC+02:00)

Vanguard 2 Rocket - Pass Details

Date: 13 April 2024
Orbit: 556 x 3304 km, 32.9° (Epoch: 20 May)

Event Time Altitude Azimuth Distance (km) Brightness Sun altitude
Rises 03:39:25 0° 253° (WSW) 7,278 - -21.5°
Reaches altitude 10° 03:45:11 10° 245° (WSW) 6,145 - -21.0°
Exits shadow 03:53:10 25° 227° (SW) 4,668 9.8 -20.3°
Maximum altitude 04:00:28 33° 192° (SSW) 3,752 9.5 -19.6°
Drops below altitude 10° 04:11:19 10° 134° (SE) 4,352 10.4 -18.5°
Sets 04:14:35 0° 125° (SE) 4,989 10.8 -18.1°
